Wind_Speed
15 15 15 15 16 16 16 15 14 14 14 14 14 14 14 13 12 11 11 11 11 11 12 12 12 12 12 12 12 12 12 12 12 11 12 12 13 13 13 13 14 13 13
16 16 15 16 16 16 16 15 15 15 15 14 14 14 14 14 14 13 13 13 13 13 13 13 12 13 13 13 13 13 13 13 13 12 13 13 13 13 14 14 14 14 14
17 17 16 16 17 16 16 16 16 16 15 15 15 15 15 15 15 15 14 15 14 14 15 14 14 14 14 14 14 14 14 14 14 14 13 13 14 14 14 14 15 15 16
17 17 17 17 17 17 17 17 17 17 17 16 16 16 16 16 15 15 15 15 15 15 15 16 16 16 16 16 15 15 15 15 15 15 15 15 15 15 15 16 16 16 16
17 18 18 18 18 18 18 19 19 19 18 19 18 18 17 17 17 16 16 16 16 16 17 17 17 17 17 17 16 16 16 16 16 15 16 16 16 16 17 17 17 17 17
19 19 19 19 19 19 19 19 20 21 21 20 20 20 20 19 19 18 18 18 18 18 18 18 18 18 18 18 18 17 17 17 17 17 17 17 17 17 18 18 18 18 18
21 21 21 21 21 21 21 21 21 21 22 22 22 22 22 22 22 21 20 20 20 19 19 19 19 19 19 19 19 19 19 19 18 18 18 19 19 19 19 20 20 19 20
23 23 23 24 24 24 24 24 24 23 23 24 24 24 24 23 24 24 23 22 22 21 21 21 21 21 21 21 21 21 21 21 21 20 20 20 21 20 21 21 22 22 21
25 25 25 26 26 26 26 26 26 26 26 26 27 26 26 25 26 26 26 25 24 24 23 23 23 22 23 23 23 24 23 23 23 22 22 23 23 23 23 23 23 23 23
27 27 27 28 28 28 28 28 28 28 28 28 28 28 28 28 28 28 28 27 26 26 26 25 25 25 24 25 25 25 25 25 25 24 24 24 25 24 24 24 24 24 25
29 29 29 29 29 29 29 29 30 30 29 29 29 29 29 29 30 30 29 29 28 27 27 27 27 27 27 27 27 27 27 27 26 26 26 27 27 27 26 26 26 26 26
31 31 31 31 31 31 31 31 31 31 30 30 30 30 30 30 31 31 31 31 30 29 29 29 29 29 29 29 29 29 28 28 28 28 28 28 28 28 27 27 27 27 28
33 33 32 32 32 32 32 32 32 32 32 32 32 31 31 31 31 31 32 32 32 31 31 31 31 31 31 31 31 31 30 30 30 29 29 29 29 29 30 30 29 29 29
35 34 34 34 33 33 33 33 33 33 33 34 33 33 32 32 33 33 33 33 34 33 33 33 32 32 32 32 32 32 32 32 32 31 31 30 31 31 32 32 33 32 31
35 35 35 35 35 35 34 34 34 34 35 35 35 34 34 34 34 34 34 34 35 35 35 35 34 34 34 34 34 34 33 34 34 35 34 34 33 33 34 34 35 34 34
36 37 37 37 37 37 37 36 36 36 36 36 36 35 35 35 36 36 36 36 36 36 36 36 36 36 35 35 35 35 36 36 35 35 35 36 35 35 35 36 36 35 34
38 38 38 39 39 38 38 38 38 37 37 37 37 37 37 36 36 37 37 37 37 37 37 37 37 36 36 36 35 35 36 35 35 35 35 35 35 35 36 36 37 37 36
39 39 39 39 39 39 39 39 39 39 38 38 38 38 38 38 37 37 38 38 38 38 37 36 37 36 36 36 35 35 35 35 36 36 35 36 36 37 37 37 37 37 36
39 39 39 39 40 40 40 40 39 40 40 39 39 39 40 40 39 39 39 39 38 37 37 36 36 36 37 36 36 36 35 36 36 36 36 36 36 37 37 37 36 36 36
39 39 39 40 40 40 40 39 39 39 40 40 40 40 40 40 40 39 40 40 39 38 38 38 37 37 37 37 37 37 37 37 37 37 36 36 37 37 37 36 36 36 36
39 39 39 39 39 39 39 39 39 39 39 39 39 39 39 39 39 39 39 39 38 38 38 38 38 38 37 37 37 37 37 37 37 37 37 37 37 37 37 37 36 36 36
38 38 38 39 39 39 39 39 39 39 39 39 38 38 39 39 39 39 39 38 38 38 38 38 37 37 37 37 37 37 37 37 37 37 38 38 38 38 38 37 37 36 37
38 39 39 39 39 39 39 38 39 39 40 39 39 39 39 39 40 40 40 39 38 38 37 37 38 38 38 37 38 38 38 38 38 39 39 38 38 38 38 37 37 37 37
38 38 38 38 39 39 39 39 39 39 39 40 40 40 40 40 40 40 40 39 39 39 38 38 38 38 39 39 39 39 39 39 39 39 39 38 38 38 38 38 38 38 38
38 38 38 38 38 38 38 39 39 40 40 40 40 40 40 40 40 39 40 40 40 39 39 39 38 38 39 39 39 39 39 38 38 38 38 38 37 37 38 38 38 38 38
38 37 37 37 37 37 38 39 39 39 40 39 39 39 39 39 39 39 39 40 40 40 39 39 39 39 40 40 40 39 39 39 38 38 38 38 37 37 37 38 38 38 39
Wind_Direction
279 281 284 280 279 278 277 276 277 276 275 273 273 275 273 271 272 273 275 278 278 278 278 278 279 280 281 281 283 284 286 288 290 287 288 290 291 291 288 287 287 287 286
278 279 282 283 281 278 275 275 276 277 275 273 273 272 272 273 272 271 272 274 276 277 276 275 278 281 281 279 280 282 284 285 285 286 287 290 290 290 288 286 286 286 288
279 278 279 281 282 277 274 274 274 273 273 273 274 271 271 271 269 269 272 274 275 275 275 274 277 280 280 279 279 280 281 281 281 282 286 288 289 290 287 287 287 285 286
276 276 277 278 280 279 276 274 272 272 271 271 272 272 270 268 269 270 273 275 275 274 274 275 277 278 279 279 279 280 280 279 279 281 284 286 288 288 288 289 288 288 285
276 276 275 275 276 277 277 275 272 272 272 270 271 272 270 269 269 269 271 273 275 275 274 274 275 277 278 278 278 279 278 279 279 280 284 286 288 289 288 289 289 288 286
274 276 277 277 277 275 275 277 276 274 272 270 270 270 270 269 269 269 269 271 274 276 275 274 274 275 277 277 277 276 277 278 279 279 281 284 287 288 289 289 289 288 288
273 274 276 277 277 277 276 276 277 276 276 274 271 268 268 267 267 267 268 269 271 274 276 276 276 276 276 276 277 277 276 277 279 280 281 283 284 285 288 288 288 288 288
273 272 273 275 277 277 277 276 276 276 276 275 274 271 268 266 267 268 268 269 271 272 274 276 276 275 275 276 277 276 277 277 277 279 280 282 282 284 287 287 286 286 286
274 274 274 274 274 275 276 276 275 275 274 274 272 271 269 268 268 267 267 268 270 270 272 273 275 275 275 275 276 277 276 276 275 277 279 280 282 283 286 287 285 284 284
274 274 274 275 275 274 274 274 274 274 274 273 271 270 268 268 268 267 267 267 268 270 270 272 272 273 274 275 275 276 276 275 275 275 277 279 281 283 284 285 285 284 284
273 273 273 274 275 275 274 273 273 273 273 272 271 270 269 268 269 268 267 267 268 269 271 271 271 272 272 273 274 275 274 273 274 275 276 278 281 282 283 284 285 285 285
272 273 273 273 274 274 273 272 272 272 272 272 272 270 269 270 269 269 268 267 267 268 269 270 270 271 271 272 273 273 273 273 273 274 276 278 280 281 282 283 284 284 285
272 272 272 272 272 272 271 271 271 271 271 271 271 270 268 269 269 269 269 268 267 268 268 269 270 271 271 272 272 273 274 274 273 274 275 277 278 280 281 283 283 284 285
272 272 272 272 271 271 271 271 271 271 270 270 270 270 268 267 268 269 269 268 267 267 267 268 268 270 270 271 272 273 274 274 275 275 274 274 276 278 280 281 281 282 283
273 273 272 271 270 271 271 271 270 270 270 269 269 269 268 267 267 268 268 267 267 268 267 267 268 269 269 269 270 272 273 274 275 275 273 274 275 277 278 279 279 280 282
273 272 272 271 270 270 270 271 271 271 270 269 270 270 269 269 268 268 268 269 268 268 268 268 268 269 269 270 270 271 272 274 275 274 274 275 276 277 278 278 278 279 280
273 273 272 271 270 270 270 270 270 270 270 269 268 268 268 268 268 268 268 268 268 267 267 268 268 268 269 270 270 271 271 273 274 273 272 273 275 276 277 278 279 279 280
274 274 273 272 270 269 269 269 269 269 269 269 268 268 267 268 268 269 268 267 268 268 267 267 267 267 267 269 270 271 272 273 274 274 274 275 276 277 278 278 279 279 279
274 274 273 272 270 268 268 269 269 269 268 268 267 268 268 268 267 268 267 268 268 268 267 267 267 267 267 268 269 271 272 274 275 275 275 276 278 278 279 279 279 278 278
274 273 273 272 271 270 269 269 269 269 269 268 268 268 268 267 267 267 267 268 268 267 267 266 266 267 268 268 269 270 271 273 274 275 275 276 277 278 279 279 278 278 277
274 273 272 271 272 270 271 271 271 271 270 270 269 267 267 267 267 267 266 266 266 266 265 264 265 266 267 268 269 270 271 272 273 274 275 276 277 278 278 278 278 277 277
274 273 272 272 272 270 271 271 271 270 270 270 268 267 267 267 266 266 265 266 265 264 264 264 265 266 267 267 268 270 271 273 273 274 275 276 277 277 277 277 277 277 277
274 273 272 272 272 271 271 271 271 271 271 270 268 267 267 266 265 265 265 265 265 265 265 265 265 265 266 267 268 269 271 272 273 274 276 276 276 276 276 276 276 277 277
275 274 273 273 272 271 272 272 271 272 272 271 269 268 267 267 265 264 264 264 264 264 265 265 265 265 266 266 268 270 271 272 273 274 276 276 276 277 276 276 276 277 277
276 275 274 273 273 273 273 273 273 273 273 272 269 267 267 266 265 264 263 263 264 264 264 265 265 266 266 267 268 270 271 272 273 273 274 275 276 276 276 276 277 278 278
277 275 275 274 274 274 275 275 275 274 274 272 270 268 267 266 265 263 263 263 263 263 263 265 266 266 266 267 268 269 270 271 271 272 274 275 276 276 275 275 276 278 278
Height
5829 5829 5828 5828 5827 5827 5827 5826 5826 5825 5825 5825 5825 5824 5824 5824 5824 5824 5823 5823 5823 5823 5822 5822 5822 5821 5821 5820 5820 5819 5819 5819 5818 5817 5816 5815 5815 5814 5813 5812 5812 5811 5811
5825 5825 5824 5823 5823 5823 5822 5822 5822 5821 5821 5821 5821 5821 5820 5820 5820 5820 5820 5820 5819 5819 5819 5818 5818 5818 5817 5817 5817 5816 5816 5815 5815 5814 5813 5812 5811 5810 5810 5809 5808 5808 5807
5820 5820 5820 5819 5819 5818 5818 5818 5817 5817 5817 5817 5816 5816 5816 5816 5816 5816 5816 5816 5815 5815 5815 5815 5814 5814 5814 5813 5813 5812 5812 5811 5811 5810 5810 5809 5808 5807 5806 5805 5804 5804 5803
5816 5816 5815 5815 5814 5814 5814 5813 5813 5812 5812 5812 5812 5812 5812 5812 5812 5811 5811 5811 5811 5811 5811 5810 5810 5810 5809 5809 5809 5808 5807 5807 5807 5806 5806 5805 5804 5803 5802 5801 5800 5799 5798
5811 5810 5810 5810 5810 5809 5809 5808 5808 5807 5807 5807 5807 5807 5807 5807 5807 5807 5807 5807 5807 5806 5806 5806 5806 5805 5805 5804 5804 5804 5803 5803 5802 5802 5801 5800 5800 5799 5798 5797 5796 5795 5794
5805 5805 5805 5804 5804 5804 5803 5803 5802 5802 5802 5801 5801 5801 5801 5801 5802 5802 5802 5802 5802 5801 5801 5801 5800 5800 5800 5799 5799 5799 5798 5798 5798 5797 5796 5796 5795 5794 5793 5792 5790 5790 5789
5799 5799 5799 5799 5798 5798 5798 5797 5796 5796 5795 5795 5795 5795 5795 5795 5795 5795 5796 5796 5796 5796 5795 5795 5795 5795 5794 5794 5793 5793 5793 5792 5792 5792 5791 5790 5789 5788 5787 5786 5785 5784 5783
5792 5792 5792 5792 5791 5791 5791 5790 5790 5789 5789 5789 5788 5788 5788 5788 5788 5788 5789 5789 5790 5789 5789 5789 5789 5789 5788 5788 5787 5787 5787 5786 5786 5785 5785 5784 5783 5782 5781 5780 5779 5778 5777
5785 5785 5784 5784 5784 5783 5783 5783 5782 5781 5781 5781 5780 5780 5780 5781 5781 5781 5781 5782 5782 5782 5782 5782 5782 5782 5782 5781 5781 5780 5780 5780 5779 5779 5778 5777 5776 5776 5775 5774 5772 5771 5770
5777 5776 5776 5775 5775 5775 5774 5774 5773 5773 5773 5772 5772 5772 5772 5772 5772 5773 5773 5773 5774 5774 5775 5775 5775 5774 5774 5774 5773 5773 5773 5772 5772 5771 5771 5770 5769 5768 5767 5767 5765 5764 5763
5768 5768 5767 5766 5766 5765 5765 5764 5764 5764 5763 5763 5763 5763 5763 5763 5763 5763 5764 5764 5765 5766 5766 5766 5766 5766 5766 5766 5765 5765 5765 5764 5764 5764 5763 5762 5762 5761 5760 5759 5758 5756 5755
5759 5758 5757 5757 5756 5756 5755 5755 5754 5754 5754 5754 5754 5754 5754 5754 5754 5754 5754 5755 5756 5757 5757 5757 5757 5757 5757 5757 5757 5757 5756 5756 5756 5755 5755 5754 5754 5753 5752 5750 5749 5748 5747
5749 5748 5747 5747 5746 5746 5745 5745 5745 5744 5744 5744 5744 5744 5744 5745 5744 5744 5745 5745 5746 5747 5748 5748 5748 5748 5748 5748 5748 5747 5747 5747 5747 5747 5746 5746 5745 5744 5743 5742 5741 5740 5738
5738 5737 5737 5736 5736 5735 5735 5734 5734 5734 5734 5734 5734 5734 5734 5734 5734 5734 5734 5735 5735 5736 5737 5738 5738 5738 5738 5738 5738 5738 5738 5737 5737 5737 5737 5736 5735 5734 5733 5732 5731 5730 5729
5726 5726 5726 5726 5725 5725 5724 5724 5723 5723 5723 5723 5723 5723 5723 5724 5724 5724 5723 5724 5724 5725 5726 5726 5727 5728 5728 5728 5728 5728 5727 5727 5727 5727 5726 5726 5725 5724 5723 5722 5720 5719 5718
5715 5715 5714 5714 5714 5713 5713 5713 5712 5712 5711 5711 5712 5712 5712 5713 5712 5712 5712 5713 5713 5713 5714 5715 5716 5716 5717 5717 5717 5717 5717 5716 5716 5716 5715 5714 5714 5713 5712 5711 5709 5708 5707
5703 5703 5702 5702 5702 5701 5701 5701 5701 5701 5699 5699 5699 5700 5700 5700 5700 5700 5700 5700 5701 5701 5702 5703 5704 5704 5705 5705 5705 5706 5706 5705 5705 5704 5704 5703 5702 5701 5700 5699 5698 5697 5696
5690 5690 5689 5689 5689 5689 5688 5688 5688 5688 5688 5687 5687 5687 5687 5688 5688 5688 5688 5688 5689 5689 5690 5691 5692 5692 5693 5693 5694 5694 5694 5694 5693 5693 5692 5691 5690 5689 5688 5687 5686 5684 5684
5678 5677 5676 5676 5676 5676 5675 5675 5675 5674 5674 5675 5675 5674 5674 5675 5675 5675 5675 5675 5676 5677 5678 5679 5680 5680 5681 5681 5682 5682 5682 5682 5682 5681 5680 5679 5678 5677 5676 5675 5673 5672 5671
5665 5664 5663 5663 5662 5662 5662 5662 5661 5661 5661 5661 5662 5662 5661 5661 5662 5662 5662 5663 5664 5665 5665 5666 5667 5668 5669 5669 5670 5670 5670 5670 5670 5669 5668 5667 5666 5665 5664 5663 5661 5660 5659
5652 5651 5650 5649 5649 5649 5648 5648 5648 5648 5648 5648 5648 5648 5648 5648 5649 5649 5650 5651 5651 5652 5653 5654 5655 5656 5656 5657 5657 5657 5657 5657 5657 5656 5656 5655 5654 5652 5651 5650 5649 5648 5647
5639 5638 5637 5637 5636 5636 5636 5635 5635 5635 5635 5635 5635 5635 5635 5635 5636 5637 5638 5638 5639 5640 5641 5641 5642 5643 5643 5644 5644 5645 5645 5644 5644 5644 5643 5642 5641 5640 5639 5638 5637 5636 5635
5626 5625 5625 5624 5624 5623 5623 5623 5622 5622 5622 5622 5622 5622 5622 5622 5623 5624 5625 5626 5627 5627 5628 5629 5630 5631 5631 5631 5632 5632 5632 5632 5631 5630 5629 5628 5628 5627 5626 5625 5624 5623 5622
5614 5613 5612 5611 5611 5610 5610 5610 5610 5609 5609 5608 5608 5608 5609 5609 5610 5611 5612 5613 5614 5615 5615 5616 5617 5618 5618 5618 5618 5619 5619 5618 5618 5617 5616 5615 5614 5614 5613 5612 5611 5611 5610
5601 5600 5599 5599 5598 5598 5597 5597 5597 5596 5595 5595 5594 5595 5595 5596 5596 5597 5599 5600 5600 5601 5602 5603 5604 5604 5605 5605 5605 5605 5605 5605 5604 5603 5602 5602 5602 5601 5600 5599 5599 5598 5597
5588 5587 5587 5586 5586 5585 5584 5584 5583 5583 5582 5581 5581 5581 5581 5582 5583 5584 5585 5586 5587 5588 5589 5590 5590 5591 5591 5591 5591 5592 5592 5591 5591 5590 5589 5589 5589 5588 5587 5586 5586 5585 5584